ECMZH ZZZZ-LKPR

Flight info

Callsign ECMZH
Flight time N/A
Altitude 1234
Route VFR
Aircraft H500/L-SDFGRY/LB1

Departure

Time N/A
Airport ZZZZ

Arrival

Time 2026-05-04 09:17
Airport Václav Havel Airport Prague (LKPR)
Time Latitude Longitude Altitude Speed Heading
2026-05-04 08:40 50.17782 12.83774 1493 ft 0 kts
2026-05-04 08:43 50.17782 12.83777 1499 ft 1 kts 309°
2026-05-04 08:44 50.17780 12.83775 1504 ft 3 kts 82°
2026-05-04 08:44 50.17756 12.84054 1579 ft 52 kts 117°
2026-05-04 08:46 50.16464 12.90108 2372 ft 112 kts 110°
2026-05-04 08:46 50.16092 12.91217 2400 ft 111 kts 114°
2026-05-04 08:46 50.15745 12.92242 2550 ft 105 kts 116°
2026-05-04 08:46 50.15373 12.93234 2623 ft 107 kts 117°
2026-05-04 08:47 50.15133 12.94314 2731 ft 104 kts 107°
2026-05-04 08:47 50.14751 12.95313 2768 ft 110 kts 121°
2026-05-04 08:47 50.14375 12.96349 2827 ft 110 kts 117°
2026-05-04 08:47 50.14050 12.97444 2860 ft 114 kts 111°
2026-05-04 08:48 50.13736 12.98595 2898 ft 116 kts 111°
2026-05-04 08:48 50.13383 12.99723 2940 ft 116 kts 122°
2026-05-04 08:48 50.12826 13.00628 2971 ft 116 kts 134°
2026-05-04 08:48 50.12405 13.01733 2907 ft 124 kts 107°
2026-05-04 08:49 50.11998 13.02908 2832 ft 126 kts 125°
2026-05-04 08:50 50.09304 13.09713 2788 ft 121 kts 118°
2026-05-04 08:50 50.08877 13.10858 2767 ft 123 kts 120°
2026-05-04 08:51 50.08504 13.12047 2791 ft 120 kts 114°
2026-05-04 08:51 50.08189 13.13253 2796 ft 121 kts 103°
2026-05-04 08:51 50.08025 13.14511 2832 ft 120 kts 100°
2026-05-04 08:51 50.07856 13.15809 2803 ft 123 kts 99°
2026-05-04 08:52 50.07690 13.17107 2855 ft 120 kts 101°
2026-05-04 08:52 50.07485 13.18371 2867 ft 122 kts 103°
2026-05-04 08:52 50.07271 13.19643 2870 ft 122 kts 101°
2026-05-04 08:52 50.07057 13.20933 2845 ft 123 kts 105°
2026-05-04 08:53 50.06829 13.22240 2808 ft 125 kts 104°
2026-05-04 08:54 50.05325 13.30959 2936 ft 115 kts 108°
2026-05-04 08:55 50.05115 13.32176 2957 ft 120 kts 99°
2026-05-04 08:55 50.04882 13.33425 2999 ft 119 kts 108°
2026-05-04 08:55 50.04644 13.34657 3024 ft 118 kts 105°
2026-05-04 08:55 50.04376 13.35954 2820 ft 134 kts 106°
2026-05-04 08:57 50.02557 13.45015 2596 ft 120 kts 91°
2026-05-04 09:01 50.04981 13.62388 2651 ft 122 kts 80°
2026-05-04 09:01 50.05059 13.63696 2663 ft 121 kts 88°
2026-05-04 09:01 50.04930 13.64962 2701 ft 118 kts 98°
2026-05-04 09:01 50.04871 13.66248 2685 ft 121 kts 88°
2026-05-04 09:02 50.04946 13.67574 2603 ft 125 kts 78°
2026-05-04 09:02 50.05110 13.68910 2563 ft 127 kts 75°
2026-05-04 09:02 50.05332 13.70254 2486 ft 128 kts 72°
2026-05-04 09:02 50.05627 13.71534 2452 ft 125 kts 63°
2026-05-04 09:03 50.06097 13.72628 2474 ft 120 kts 50°
2026-05-04 09:03 50.06576 13.73721 2436 ft 122 kts 53°
2026-05-04 09:03 50.07045 13.74824 2384 ft 126 kts 59°
2026-05-04 09:03 50.07395 13.76077 2381 ft 124 kts 70°
2026-05-04 09:04 50.07623 13.77372 2363 ft 125 kts 76°
2026-05-04 09:04 50.07891 13.78656 2300 ft 124 kts 62°
2026-05-04 09:04 50.08257 13.79840 2312 ft 121 kts 65°
2026-05-04 09:04 50.08557 13.81047 2305 ft 119 kts 73°
2026-05-04 09:05 50.08784 13.82290 2324 ft 118 kts 71°
2026-05-04 09:05 50.09132 13.83438 2356 ft 117 kts 57°
2026-05-04 09:05 50.09563 13.84506 2377 ft 118 kts 55°
2026-05-04 09:05 50.09977 13.85631 2370 ft 121 kts 60°
2026-05-04 09:06 50.10331 13.86838 2365 ft 123 kts 63°
2026-05-04 09:07 50.13094 13.94588 2374 ft 119 kts 74°
2026-05-04 09:08 50.13412 13.95769 2409 ft 120 kts 60°
2026-05-04 09:08 50.13971 13.96723 2384 ft 118 kts 35°
2026-05-04 09:08 50.14649 13.97432 2392 ft 118 kts 33°
2026-05-04 09:08 50.15148 13.98419 2373 ft 121 kts 69°
2026-05-04 09:09 50.15245 13.99736 2314 ft 123 kts 86°
2026-05-04 09:09 50.15203 14.01059 2316 ft 121 kts 94°
2026-05-04 09:09 50.15077 14.02365 2275 ft 124 kts 97°
2026-05-04 09:09 50.14904 14.03676 2253 ft 122 kts 99°
2026-05-04 09:10 50.14740 14.04966 2256 ft 120 kts 97°
2026-05-04 09:10 50.14592 14.06251 2236 ft 121 kts 97°
2026-05-04 09:10 50.14466 14.07559 2254 ft 122 kts 93°
2026-05-04 09:10 50.14538 14.08868 2289 ft 120 kts 78°
2026-05-04 09:11 50.14853 14.10077 2287 ft 120 kts 61°
2026-05-04 09:11 50.14843 14.11383 2262 ft 122 kts 102°
2026-05-04 09:11 50.14439 14.12547 2294 ft 123 kts 121°
2026-05-04 09:11 50.14255 14.13809 2229 ft 120 kts 85°
2026-05-04 09:12 50.14333 14.14662 2237 ft 117 kts 74°
2026-05-04 09:12 50.14584 14.15849 2281 ft 118 kts 68°
2026-05-04 09:14 50.13563 14.24789 1940 ft 108 kts 123°
2026-05-04 09:14 50.13157 14.25619 1882 ft 87 kts 125°
2026-05-04 09:14 50.12786 14.26287 1797 ft 78 kts 133°
2026-05-04 09:14 50.12409 14.26878 1711 ft 75 kts 129°
2026-05-04 09:15 50.12066 14.27448 1642 ft 72 kts 130°
2026-05-04 09:15 50.11741 14.28010 1498 ft 60 kts 127°
2026-05-04 09:15 50.11481 14.28469 1490 ft 56 kts 136°
2026-05-04 09:15 50.11180 14.28837 1504 ft 51 kts 144°
2026-05-04 09:17 50.09945 14.28287 1197 ft 0 kts 113°
2026-05-04 09:18 50.09945 14.28286 1195 ft 0 kts 115°
2026-05-04 09:18 50.09926 14.28334 1200 ft 8 kts 127°
2026-05-04 09:19 50.09904 14.28400 1201 ft 9 kts 111°
2026-05-04 09:19 50.09884 14.28466 1208 ft 7 kts 103°
2026-05-04 09:19 50.09887 14.28563 1211 ft 12 kts 142°
2026-05-04 09:19 50.09853 14.28593 1206 ft 4 kts 173°
2026-05-04 09:20 50.09832 14.28591 1206 ft 3 kts 153°
2026-05-04 09:20 50.09831 14.28591 1205 ft 0 kts 178°